{"data":{"norad_id":66287,"epoch":"2026-05-25T03:35:45.204000Z","epoch_age_seconds":55363,"freshness":"FRESH","line1":"1 66287U 25247Y   26145.14982875  .00023906  00000+0  71593-3 0  9998","line2":"2 66287  53.1593 195.3273 0001003  78.6433 281.4682 15.34421301 32754","mean_motion":15.34421301,"eccentricity":0.0001003,"inclination_deg":53.1593,"raan_deg":195.3273,"arg_perigee_deg":78.6433,"mean_anomaly_deg":281.4682,"bstar":0.00071593,"rev_number":3275,"period_min":93.846455276757,"perigee_km":461.95379995247,"apogee_km":463.3260598046,"semimajor_km":6840.7769298785,"source":"CELESTRAK","updated_at":"2026-05-25T13:38:21.164845Z"}}